Change the Weather History Date:

Saturday, January 12, 2013

  Actual Average Record
Temperature  
Mean Temperature 22 °F -7 °F  
Max Temperature 31 °F - 36 °F (1984)
Min Temperature 12 °F -16 °F -55 °F (1983)
Degree Days  
Heating Degree Days 43 72  
Month to date heating degree days 649 863  
Since 1 July heating degree days 7414 7109  
Cooling Degree Days 0    
Month to date cooling degree days 0  
Year to date cooling degree days 0  
Moisture  
Dew Point 20 °F    
Average Humidity 0    
Maximum Humidity 0    
Minimum Humidity 0    
Precipitation  
Precipitation 0.86 in 0.04 in 0.86 in (2013)
Month to date precipitation 1.37 0.47  
Year to date precipitation 1.37 0.47  
Snow  
Snow 5.70 in 0.50 in 5.70 in (2013)
Month to date snowfall 13.1 6.6  
Since 1 July snowfall 46.8 57.8  
Snow Depth 32.00 in    
Sea Level Pressure  
Sea Level Pressure 29.74 in    
Wind  
Wind Speed 4 mph (SE)    
Max Wind Speed 8 mph    
Max Gust Speed 16 mph    
Visibility 4 miles    
Events Fog , Rain , Snow    
T = Trace of Precipitation, MM = Missing Value Source: NWS Daily Summary

Daily Weather History Graph

Daily Weather History Graph

Search for Another Location

Airport or City:

Trip Planner

Search our weather history database for the weather conditions in past years. The results will help you decide how hot, cold, wet, or windy it might be!

Date:

Astronomy

Jan. 12, 2013 Rise Set
Actual Time 10:41 AM AKST 4:21 PM AKST
Civil Twilight 9:37 AM AKST 5:24 PM AKST
Nautical Twilight 8:36 AM AKST 6:26 PM AKST
Astronomical Twilight 7:40 AM AKST 7:22 PM AKST
Moon 10:21 AM AKST (1/12) 6:56 PM AKST (1/12)
Length of Visible Light 7h 47m
Length of Day
5h 40m
New Moon, 2% of the Moon is Illuminated
Jan 12
New Moon
Jan 18
First Quarter
Jan 26
Full
Feb 3
Last Quarter
Feb 9
New

Hourly Weather History & Observations

Time (AKST) Temp. Windchill Dew Point Humidity Pressure Visibility Wind Dir Wind Speed Gust Speed Precip Events Conditions
12:23 AM 12.2 °F - 8.6 °F 85% 29.99 in 10.0 mi Calm Calm - N/A   Mostly Cloudy
12:53 AM 12.0 °F 5.9 °F 9.0 °F 88% 30.01 in 10.0 mi NW 3.5 mph - N/A   Mostly Cloudy
1:53 AM 12.9 °F - 9.0 °F 84% 30.01 in 10.0 mi Calm Calm - N/A   Overcast
3:53 AM 15.1 °F 9.4 °F 12.0 °F 88% 29.96 in 3.0 mi NNW 3.5 mph - 0.00 in Snow Light Snow
3:56 AM 15.8 °F - 12.2 °F 86% 29.93 in 1.8 mi Calm Calm - 0.00 in Snow Light Snow
4:09 AM 15.8 °F - 10.4 °F 79% 29.94 in 3.0 mi Calm Calm - 0.00 in Snow Light Snow
4:18 AM 15.8 °F 10.2 °F 12.2 °F 86% 29.95 in 1.8 mi South 3.5 mph - 0.00 in Snow Light Snow
4:40 AM 15.8 °F - 12.2 °F 86% 29.94 in 0.8 mi Calm Calm - 0.02 in Snow Light Snow
4:53 AM 16.0 °F - 12.9 °F 88% 29.96 in 0.8 mi Calm Calm - 0.04 in Snow Light Snow
5:36 AM 15.8 °F - 12.2 °F 86% 29.90 in 1.0 mi Calm Calm - 0.04 in Snow Light Snow
5:43 AM 15.8 °F - 12.2 °F 86% 29.90 in 1.2 mi Calm Calm - 0.05 in Snow Light Snow
5:51 AM 15.8 °F - 14.0 °F 93% 29.90 in 1.8 mi Calm Calm - 0.05 in Snow Light Snow
5:53 AM 16.0 °F - 14.0 °F 92% 29.93 in 1.8 mi Calm Calm - 0.05 in Snow Light Snow
6:19 AM 17.6 °F - 14.0 °F 86% 29.88 in 2.5 mi Calm Calm - 0.01 in Snow Light Snow
6:48 AM 17.6 °F - 15.8 °F 93% 29.87 in 9.0 mi Calm Calm - 0.02 in Snow Light Snow
6:53 AM 17.1 °F - 15.1 °F 92% 29.89 in 8.0 mi Calm Calm - 0.02 in Snow Light Snow
7:16 AM 17.6 °F - 15.8 °F 93% 29.85 in 4.0 mi Calm Calm - 0.00 in Snow Light Snow
7:53 AM 19.0 °F - 16.0 °F 88% 29.86 in 3.0 mi Calm Calm - 0.00 in Snow Light Snow
8:03 AM 19.4 °F - 15.8 °F 86% 29.83 in 4.0 mi Calm Calm - 0.00 in Snow Light Snow
8:16 AM 19.4 °F - 17.6 °F 93% 29.82 in 9.0 mi Calm Calm - 0.01 in Snow Light Snow
8:53 AM 19.0 °F - 17.1 °F 92% 29.83 in 9.0 mi Calm Calm - 0.01 in Snow Light Snow
9:42 AM 19.4 °F 14.3 °F 17.6 °F 93% 29.78 in 9.0 mi West 3.5 mph - 0.00 in   Overcast
9:53 AM 21.0 °F 16.2 °F 18.0 °F 88% 29.81 in 10.0 mi West 3.5 mph - 0.00 in   Overcast
10:10 AM 21.2 °F - 19.4 °F 93% 29.77 in 10.0 mi Calm Calm - N/A   Overcast
10:53 AM 21.9 °F - 19.9 °F 92% 29.78 in 10.0 mi Calm Calm - N/A   Overcast
11:53 AM 23.0 °F - 21.0 °F 92% 29.76 in 10.0 mi Calm Calm - N/A   Overcast
12:32 PM 23.0 °F - 21.2 °F 93% 29.71 in 2.0 mi Calm Calm - 0.00 in Snow Light Snow
12:42 PM 24.8 °F - 21.2 °F 86% 29.71 in 1.2 mi Calm Calm - 0.00 in Snow Light Snow
12:48 PM 24.8 °F - 21.2 °F 86% 29.70 in 1.0 mi Calm Calm - 0.00 in Snow Light Snow
12:53 PM 24.1 °F - 21.9 °F 91% 29.73 in 0.5 mi Calm Calm - 0.01 in Fog , Snow Snow
1:07 PM 24.8 °F - 21.2 °F 86% 29.70 in 0.2 mi Calm Calm - 0.02 in Fog , Snow Snow
1:19 PM 24.8 °F - 21.2 °F 86% 29.70 in 0.5 mi Calm Calm - 0.04 in Fog , Snow Snow
1:33 PM 24.8 °F 20.5 °F 21.2 °F 86% 29.70 in 0.5 mi WNW 3.5 mph - 0.06 in Fog , Snow Snow
1:53 PM 24.1 °F 19.7 °F 21.9 °F 91% 29.71 in 0.2 mi NW 3.5 mph - 0.10 in Fog , Snow Snow
2:53 PM 24.1 °F 19.7 °F 21.9 °F 91% 29.67 in 0.5 mi WSW 3.5 mph - 0.09 in Fog , Snow Snow
3:05 PM 24.8 °F - 23.0 °F 93% 29.64 in 0.5 mi Calm Calm - 0.02 in Fog , Snow Snow
3:37 PM 24.8 °F - 23.0 °F 93% 29.62 in 0.5 mi Calm Calm - 0.08 in Fog , Snow Snow
4:20 PM 26.6 °F - 24.8 °F 93% 29.59 in 1.5 mi Calm Calm - 0.03 in Snow Light Snow
4:40 PM 28.4 °F 20.4 °F 26.6 °F 93% 29.58 in 2.5 mi East 8.1 mph - 0.06 in Snow Light Snow
4:53 PM 28.0 °F 21.7 °F 26.1 °F 92% 29.59 in 2.5 mi Variable 5.8 mph - 0.07 in Snow Light Snow
4:57 PM 28.4 °F 20.4 °F 26.6 °F 93% 29.56 in 3.0 mi ESE 8.1 mph - 0.01 in Snow Light Snow
5:10 PM 28.4 °F 21.2 °F 26.6 °F 93% 29.55 in 6.0 mi ESE 6.9 mph - 0.02 in Snow Light Snow
5:34 PM 28.4 °F 21.2 °F 26.6 °F 93% 29.54 in 7.0 mi ESE 6.9 mph - 0.05 in   Overcast
5:53 PM 30.0 °F 23.2 °F 27.0 °F 88% 29.57 in 7.0 mi Variable 6.9 mph - 0.08 in   Overcast
6:53 PM 30.0 °F 21.7 °F 27.0 °F 88% 29.55 in 5.0 mi ESE 9.2 mph 18.4 mph 0.06 in   Overcast
7:53 PM 30.0 °F - 27.0 °F 88% 29.53 in 4.0 mi North - - 0.07 in   Overcast
8:13 PM 30.2 °F - 26.6 °F 86% 29.51 in 4.0 mi North - - 0.00 in   Overcast
8:28 PM 30.2 °F - 28.4 °F 93% 29.51 in 4.0 mi North - - 0.01 in   Overcast
8:53 PM 30.0 °F - 28.0 °F 92% 29.53 in 4.0 mi North - - 0.03 in   Overcast
9:50 PM 30.2 °F - 28.4 °F 93% 29.52 in 4.0 mi North - - 0.01 in   Overcast
10:22 PM 30.2 °F - 28.4 °F 93% 29.52 in 5.0 mi North - - 0.03 in Rain Light Freezing Rain
10:46 PM 30.2 °F - 28.4 °F 93% 29.52 in 6.0 mi North - - 0.06 in Rain Light Freezing Rain
10:53 PM 30.0 °F - 28.0 °F 92% 29.54 in 4.0 mi ESE 116.2 mph 127.7 mph 0.06 in Rain Light Freezing Rain
11:00 PM 30.2 °F - 28.4 °F 93% 29.53 in 4.0 mi North - - 0.01 in Rain Light Freezing Rain
11:12 PM 30.2 °F - 28.4 °F 93% 29.53 in 6.0 mi North - - 0.01 in   Overcast
11:29 PM 30.2 °F - 28.4 °F 93% 29.52 in 4.0 mi East 117.4 mph - 0.02 in   Overcast